Charlevoix, MI

12:42 AM EDT on July 27, 2017 (GMT -0400)
Charlevoix Municipal

Weather History for KCVX - August, 2014

Change the Weather History Date:

Sunday, August 3, 2014

  Actual Average Record
Temperature  
Mean Temperature 70 °F -  
Max Temperature 82 °F 71 °F 93 °F (2005)
Min Temperature 57 °F 57 °F 54 °F (2013)
Cooling Degree Days 4    
Growing Degree Days 20 (Base 50)    
Moisture  
Dew Point 61 °F    
Average Humidity 82    
Maximum Humidity 99    
Minimum Humidity 41    
Precipitation  
Precipitation 0.00 in - - ()
Sea Level Pressure  
Sea Level Pressure 30.12 in    
Wind  
Wind Speed 3 mph (WSW)    
Max Wind Speed 16 mph    
Max Gust Speed 26 mph    
Visibility 8 miles    
Events Rain    
Averages and records for this station are not official NWS values.
T = Trace of Precipitation, MM = Missing Value Source: NWS Daily Summary

Daily Weather History Graph

Daily Weather History Graph

Search for Another Location

Airport or City:

Trip Planner

Search our weather history database for the weather conditions in past years. The results will help you decide how hot, cold, wet, or windy it might be!

Date:

Astronomy

Aug. 03, 2014 Rise Set
Actual Time 6:27 AM EDT 9:05 PM EDT
Civil Twilight 5:54 AM EDT 9:39 PM EDT
Nautical Twilight 5:11 AM EDT 10:21 PM EDT
Astronomical Twilight 4:22 AM EDT 11:10 PM EDT
Moon 2:10 PM EDT (8/3) 12:03 AM EDT (8/3)
Length of Visible Light 15h 45m
Length of Day
14h 37m
Waxing Crescent, 46% of the Moon is Illuminated
Aug 3
Waxing Crescent
Aug 3
First Quarter
Aug 10
Full
Aug 17
Last Quarter
Aug 25
New

Hourly Weather History & Observations

Time (EDT) Temp. Heat Index Dew Point Humidity Pressure Visibility Wind Dir Wind Speed Gust Speed Precip Events Conditions
12:35 AM 58.6 °F - 58.1 °F 98% 30.14 in 10.0 mi Calm Calm - N/A   Clear
12:55 AM 58.1 °F - 57.4 °F 97% 30.14 in 10.0 mi Calm Calm - N/A   Clear
1:15 AM 58.1 °F - 57.4 °F 97% 30.14 in 10.0 mi Calm Calm - N/A   Clear
1:55 AM 60.8 °F - 59.5 °F 96% 30.14 in 10.0 mi Calm Calm - N/A   Clear
2:35 AM 58.5 °F - 57.6 °F 97% 30.14 in 10.0 mi ESE 4.6 mph - N/A   Clear
2:55 AM 59.4 °F - 58.3 °F 96% 30.14 in 10.0 mi Calm Calm - N/A   Clear
3:15 AM 58.8 °F - 57.7 °F 96% 30.13 in 10.0 mi Calm Calm - N/A   Clear
3:35 AM 59.0 °F - 58.1 °F 97% 30.14 in 10.0 mi ESE 4.6 mph - N/A   Clear
4:15 AM 58.3 °F - 57.7 °F 98% 30.13 in 7.0 mi SE 3.5 mph - N/A   Clear
4:55 AM 58.6 °F - 58.1 °F 98% 30.13 in 7.0 mi SE 4.6 mph - N/A   Clear
5:15 AM 58.5 °F - 58.1 °F 99% 30.13 in 7.0 mi ESE 3.5 mph - N/A   Clear
5:34 AM 58.6 °F - 58.3 °F 99% 30.13 in 7.0 mi ESE 5.8 mph - N/A   Clear
5:55 AM 57.9 °F - 57.4 °F 98% 30.14 in 7.0 mi Calm Calm - N/A   Clear
6:15 AM 58.5 °F - 58.3 °F 99% 30.14 in 7.0 mi ESE 3.5 mph - N/A   Clear
6:34 AM 59.0 °F - 58.5 °F 98% 30.14 in 5.0 mi Calm Calm - N/A   Clear
6:55 AM 58.8 °F - 58.5 °F 99% 30.14 in 7.0 mi Calm Calm - N/A   Clear
7:15 AM 59.2 °F - 59.0 °F 99% 30.14 in 5.0 mi Calm Calm - N/A   Clear
7:34 AM 60.3 °F - 60.1 °F 99% 30.14 in 5.0 mi East 3.5 mph - N/A   Scattered Clouds
7:55 AM 62.2 °F - 61.7 °F 98% 30.15 in 5.0 mi Calm Calm - N/A   Overcast
8:15 AM 63.7 °F - 63.0 °F 97% 30.15 in 5.0 mi Calm Calm - N/A   Overcast
8:34 AM 65.7 °F - 64.6 °F 96% 30.15 in 5.0 mi Calm Calm - N/A   Overcast
8:55 AM 66.0 °F - 64.4 °F 94% 30.16 in 7.0 mi WSW 8.1 mph - N/A   Overcast
9:15 AM 65.7 °F - 64.2 °F 95% 30.16 in 7.0 mi WSW 5.8 mph - N/A   Overcast
9:34 AM 65.8 °F - 64.0 °F 94% 30.16 in 7.0 mi SSW 3.5 mph - N/A   Overcast
9:55 AM 65.7 °F - 63.3 °F 92% 30.15 in 7.0 mi South 5.8 mph - N/A Rain Light Rain
10:15 AM 65.8 °F - 62.8 °F 90% 30.14 in 10.0 mi Calm Calm - N/A   Overcast
10:35 AM 66.4 °F - 62.2 °F 86% 30.14 in 7.0 mi Calm Calm - N/A Rain Light Rain
10:55 AM 67.1 °F - 63.3 °F 88% 30.14 in 10.0 mi SSE 3.5 mph - N/A   Overcast
11:15 AM 68.5 °F - 62.6 °F 81% 30.14 in 10.0 mi Calm Calm - N/A   Mostly Cloudy
11:35 AM 70.5 °F - 61.9 °F 74% 30.14 in 10.0 mi SSW 4.6 mph - N/A   Scattered Clouds
11:55 AM 72.9 °F - 61.2 °F 67% 30.13 in 10.0 mi SSW 6.9 mph - N/A   Clear
12:15 PM 76.3 °F - 60.4 °F 58% 30.13 in 10.0 mi SSW 6.9 mph - N/A   Clear
12:35 PM 77.7 °F - 59.4 °F 53% 30.13 in 10.0 mi SW 9.2 mph - N/A   Clear
12:55 PM 78.4 °F - 58.3 °F 50% 30.12 in 10.0 mi SW 6.9 mph - N/A   Clear
1:14 PM 79.7 °F - 57.6 °F 47% 30.12 in 10.0 mi SSW 6.9 mph - N/A   Clear
1:35 PM 79.9 °F - 56.1 °F 44% 30.12 in 10.0 mi SW 4.6 mph - N/A   Clear
1:55 PM 81.7 °F 81.3 °F 55.9 °F 41% 30.11 in 10.0 mi West 10.4 mph - N/A   Clear
2:14 PM 81.9 °F 81.6 °F 56.7 °F 42% 30.10 in 10.0 mi SW 4.6 mph - N/A   Clear
2:35 PM 82.2 °F 82.0 °F 57.9 °F 43% 30.10 in 10.0 mi SW 6.9 mph - N/A   Clear
3:14 PM 82.0 °F 82.2 °F 59.5 °F 46% 30.09 in 10.0 mi West 9.2 mph - N/A   Mostly Cloudy
3:35 PM 81.1 °F 81.9 °F 60.8 °F 50% 30.09 in 10.0 mi WNW 9.2 mph - N/A   Mostly Cloudy
3:55 PM 79.7 °F - 60.3 °F 51% 30.08 in 10.0 mi West 9.2 mph - N/A   Scattered Clouds
4:14 PM 79.0 °F - 60.3 °F 53% 30.09 in 10.0 mi West 11.5 mph - N/A   Clear
4:35 PM 77.7 °F - 61.2 °F 57% 30.09 in 10.0 mi West 10.4 mph - N/A   Clear
4:54 PM 75.9 °F - 61.7 °F 61% 30.08 in 10.0 mi West 13.8 mph - N/A   Clear
5:15 PM 78.3 °F - 62.6 °F 58% 30.08 in 10.0 mi West 11.5 mph - N/A   Clear
5:35 PM 73.0 °F - 61.5 °F 67% 30.09 in 10.0 mi WNW 16.1 mph 26.5 mph N/A   Scattered Clouds
5:54 PM 71.6 °F - 62.6 °F 73% 30.08 in 10.0 mi West 11.5 mph - N/A   Scattered Clouds
6:15 PM 73.0 °F - 63.0 °F 71% 30.08 in 10.0 mi West 8.1 mph - N/A   Clear
6:35 PM 72.5 °F - 63.0 °F 72% 30.07 in 10.0 mi NW 5.8 mph - N/A   Clear
6:54 PM 70.7 °F - 62.8 °F 76% 30.07 in 7.0 mi West 5.8 mph - N/A   Clear
7:15 PM 68.5 °F - 62.6 °F 81% 30.07 in 7.0 mi WNW 3.5 mph - N/A   Clear
7:35 PM 69.1 °F - 62.6 °F 80% 30.08 in 7.0 mi WNW 3.5 mph - N/A   Clear
7:54 PM 68.7 °F - 63.3 °F 83% 30.08 in 7.0 mi WNW 3.5 mph - N/A   Clear
8:15 PM 68.4 °F - 63.1 °F 83% 30.08 in 7.0 mi West 6.9 mph - N/A   Scattered Clouds
8:35 PM 67.3 °F - 63.5 °F 88% 30.08 in 7.0 mi West 3.5 mph - N/A   Scattered Clouds
8:54 PM 66.4 °F - 63.5 °F 90% 30.08 in 7.0 mi WSW 4.6 mph - N/A   Clear
9:15 PM 65.8 °F - 63.5 °F 92% 30.08 in 7.0 mi WSW 3.5 mph - N/A   Clear
9:35 PM 65.1 °F - 63.3 °F 94% 30.08 in 7.0 mi West 3.5 mph - N/A   Scattered Clouds
10:15 PM 64.4 °F - 63.5 °F 97% 30.09 in 7.0 mi WNW 3.5 mph - N/A   Scattered Clouds
10:35 PM 64.6 °F - 63.9 °F 98% 30.10 in 7.0 mi WSW 3.5 mph - N/A   Scattered Clouds
10:54 PM 64.4 °F - 63.7 °F 98% 30.10 in 7.0 mi West 4.6 mph - N/A   Clear
11:15 PM 63.9 °F - 63.1 °F 97% 30.09 in 7.0 mi Calm Calm - N/A   Clear
11:35 PM 63.9 °F - 63.5 °F 99% 30.09 in 5.0 mi Calm Calm - N/A   Scattered Clouds
11:55 PM 63.9 °F - 63.5 °F 99% 30.09 in 5.0 mi West 3.5 mph - N/A   Mostly Cloudy